{"data":{"norad_id":66660,"intl_designator":"2025-274L","name":"K-HERO","alt_names":[],"object_type":"PAYLOAD","status":"ACTIVE","operator":null,"country":"SKOR","launch_date":"2025-11-26","launch_site_code":"NSC","launch_vehicle":null,"mission":null,"orbit_class":"UNKNOWN","rcs_meters":null,"size_class":null,"mass_kg":null,"dimensions":null,"purposes":[],"wikipedia_slug":null,"has_3d_model":false,"image_url":null,"decayed_at":null,"tle_current":{"epoch":"2026-05-25T02:01:47.401824Z","epoch_age_seconds":71713,"freshness":"FRESH","line1":"1 66660U 25274L   26145.08457641  .00001948  00000+0  18840-3 0  9992","line2":"2 66660  97.7489  74.8522 0015660  94.9296 265.3712 14.93856372 26782","mean_motion":14.93856372,"eccentricity":0.001566,"inclination_deg":97.7489,"raan_deg":74.8522,"arg_perigee_deg":94.9296,"mean_anomaly_deg":265.3712,"bstar":0.0001884,"rev_number":2678,"period_min":96.394809232704,"perigee_km":575.01900888821,"apogee_km":596.83045022518,"semimajor_km":6964.0617295567,"source":"CELESTRAK","updated_at":"2026-05-25T13:38:06.382472Z"}}}